Dewpoint
34 31 31 28 22 19 15 14 15 16 19 20 18 16 17 17 16 16 16 16 16 15 19 28 36 47 53 56 59 61 61 62 62 61 62 61 62 64 64 64 63 63 62 61
31 30 32 28 24 21 20 15 13 21 23 18 18 19 20 19 19 16 16 17 18 17 15 20 29 42 51 53 56 60 61 62 62 62 62 61 61 63 63 64 64 63 62 62
25 27 33 24 22 20 19 16 13 15 20 19 19 10 13 18 20 19 20 18 18 19 17 19 25 32 35 38 43 53 60 61 62 61 61 59 60 61 63 63 63 63 62 62
23 24 22 24 19 20 18 16 15 20 13 9 9 6 1 6 13 19 18 19 19 19 20 23 25 28 30 36 38 35 35 54 61 60 60 60 59 59 59 60 62 63 62 62
22 21 21 20 20 18 18 22 21 20 15 12 12 2 2 9 9 10 16 19 19 21 23 25 33 38 42 42 43 44 40 35 38 60 60 60 58 58 59 60 61 62 61 61
22 24 21 20 21 18 22 18 18 18 11 8 8 5 5 4 8 8 13 17 20 26 34 36 38 41 43 45 47 48 47 40 34 41 59 60 58 60 59 58 58 60 60 60
20 22 24 23 19 23 18 12 12 9 10 7 14 7 7 8 10 9 12 21 30 33 35 37 39 41 42 43 47 47 42 44 40 46 52 58 58 58 57 56 58 59 59 59
17 16 21 22 19 19 17 13 16 9 11 6 14 11 7 15 17 16 19 29 31 34 35 37 40 41 42 43 47 49 49 48 48 50 51 53 56 56 56 57 58 58 58 58
16 17 25 24 25 20 18 16 17 18 19 18 12 11 13 18 18 27 30 31 32 34 37 39 40 41 41 42 46 48 48 48 48 49 49 50 52 53 54 54 54 54 54 53
17 19 27 24 24 22 19 18 16 18 14 7 6 10 6 15 19 28 30 31 33 36 38 39 40 40 41 42 43 45 46 46 45 46 46 46 47 47 48 48 47 47 46 47
23 24 25 24 21 19 16 14 14 18 19 13 11 7 12 10 20 21 30 31 33 36 37 38 39 40 40 41 41 41 42 42 42 42 41 41 40 40 42 42 41 40 40 41
25 26 23 20 24 27 22 15 15 10 12 16 15 5 13 15 22 22 22 30 34 36 36 38 38 38 39 39 39 39 38 38 37 37 37 36 36 36 36 36 36 37 36 36
27 25 22 21 20 25 22 20 17 19 21 20 15 9 20 25 24 23 25 30 34 35 36 37 36 36 37 36 36 36 36 35 35 35 34 34 34 34 34 34 34 34 33 33
31 27 22 15 14 22 21 21 19 16 20 18 16 9 11 21 24 28 29 32 34 35 36 36 35 35 35 35 34 34 35 34 34 34 33 33 33 32 32 32 32 32 32 31
25 20 22 25 23 23 23 21 19 16 12 12 9 10 9 18 20 29 32 34 34 35 35 36 35 34 34 34 34 34 33 33 33 33 32 32 32 31 31 31 31 30 30 30
27 17 25 23 27 24 24 22 21 17 16 13 14 13 14 16 24 31 32 34 34 34 35 35 35 34 33 33 33 33 33 33 33 31 31 31 30 30 30 29 29 29 29 28
26 25 19 15 27 23 22 22 20 18 16 15 13 13 17 18 22 28 32 33 34 34 35 35 34 33 33 33 32 32 32 32 31 30 29 29 29 29 29 28 28 27 26 27
26 24 21 17 16 11 18 22 20 19 20 18 18 18 19 19 21 24 30 33 33 34 35 35 34 33 33 33 33 32 31 29 29 29 28 28 28 27 26 25 26 26 26 27
30 28 24 21 10 17 17 23 20 21 17 23 20 21 20 21 24 23 25 32 33 34 36 35 35 33 32 33 32 30 29 29 28 28 27 26 26 25 24 24 24 26 25 26
33 30 27 20 10 10 14 25 25 22 18 25 25 25 24 26 23 21 33 35 34 36 36 35 34 32 32 32 31 29 28 27 27 26 26 25 24 23 23 24 24 24 24 26
30 29 24 16 14 19 24 27 28 20 20 28 30 28 27 26 27 31 33 32 32 33 33 32 32 32 31 30 29 27 26 25 25 24 22 22 22 22 22 21 22 22 24 23
27 26 24 20 16 19 27 28 24 27 27 29 31 31 30 31 31 31 30 30 30 30 30 30 30 29 29 28 27 25 24 22 21 21 20 18 17 22 21 18 21 20 18 15
28 29 27 27 25 28 27 29 29 28 27 28 28 31 31 30 30 30 29 28 28 27 27 27 27 26 24 25 25 23 21 19 18 16 14 14 19 19 20 19 17 16 13 13
28 29 29 28 29 27 29 30 29 28 27 27 28 29 30 29 29 29 28 28 27 25 25 23 25 25 22 21 22 21 19 17 15 17 18 19 17 17 17 19 19 15 11 10
28 29 27 25 28 28 28 29 29 27 25 25 27 28 29 29 28 28 27 26 26 24 23 23 24 24 20 19 17 17 16 17 18 17 17 16 15 15 15 16 15 16 15 15
25 26 27 26 29 28 28 29 29 27 26 26 26 26 28 28 28 27 25 25 24 23 21 20 20 19 16 15 14 13 14 15 16 15 14 13 12 12 12 11 10 14 17 18
Lifted_Index
6 4 3 3 4 6 7 7 6 6 6 6 6 6 6 7 7 7 7 7 7 7 8 8 7 5 3 1 0 -0 -1 -1 -1 -1 -1 -1 -0 -0 -0 -0 -0 0 0 1
4 4 4 4 5 7 8 7 7 6 6 6 6 6 6 7 7 7 7 7 7 7 8 8 8 6 4 2 1 0 -1 -1 -1 -1 -1 -1 -0 0 0 0 0 0 0 1
5 5 5 6 7 8 8 8 7 7 6 6 5 5 5 6 7 8 7 7 7 7 8 9 9 8 5 3 2 1 0 -0 -1 -1 -1 -1 -0 1 1 1 1 1 1 1
7 7 7 6 7 8 8 7 7 6 6 5 5 4 5 6 7 7 7 7 7 7 8 9 9 9 7 5 4 3 2 1 0 -0 -1 -1 -0 1 1 1 1 1 1 1
8 8 8 7 7 8 8 7 6 6 5 5 4 4 4 5 6 6 6 6 6 7 8 9 9 9 9 8 8 7 6 5 4 2 0 -0 -0 0 1 1 1 1 1 1
8 8 8 8 7 7 7 6 5 5 4 4 4 4 4 5 5 5 5 5 6 7 8 9 9 9 9 9 9 9 9 9 8 6 3 0 -0 0 1 2 2 2 2 1
8 8 8 8 7 7 6 5 4 3 2 3 3 4 4 5 5 5 5 5 6 7 8 9 9 9 9 9 9 9 10 11 11 9 6 2 1 1 2 2 3 2 2 2
7 7 7 7 6 6 5 4 3 2 1 2 3 4 5 6 6 5 5 5 6 7 8 9 9 9 9 9 9 8 9 10 10 9 7 4 2 1 2 3 3 3 2 2
5 5 5 5 5 5 4 3 3 2 1 2 3 4 4 5 5 5 5 5 6 7 8 9 9 10 10 10 9 8 8 9 9 8 6 5 3 2 2 3 3 3 3 3
4 4 4 4 4 3 3 3 2 2 1 1 2 3 4 4 4 4 4 5 6 7 8 9 9 10 10 9 9 8 8 8 8 7 6 5 4 3 3 4 4 4 4 4
4 3 3 3 3 3 3 2 2 1 1 1 1 2 3 3 4 4 4 5 6 7 8 9 9 9 9 9 8 8 8 8 8 7 7 6 5 4 3 4 5 4 4 5
3 3 3 2 3 3 3 2 2 1 1 1 1 2 3 3 4 4 5 5 6 7 8 8 8 8 8 8 8 8 8 8 7 7 7 6 5 5 5 5 5 5 5 6
3 3 2 2 2 3 3 3 2 2 1 1 1 2 3 3 4 4 4 5 5 6 7 8 8 7 7 7 8 8 8 7 7 7 7 6 6 6 6 6 6 7 8 8
3 3 2 2 2 3 3 2 2 2 1 1 2 2 3 3 3 4 4 5 5 6 7 7 8 7 7 7 7 7 7 7 7 7 7 7 7 7 7 8 8 9 10 11
3 3 3 3 3 3 2 2 2 2 2 2 3 3 3 4 4 4 5 5 5 5 6 7 7 7 7 6 6 6 7 7 7 7 7 7 7 8 8 9 10 12 13 13
3 3 3 2 2 2 2 2 2 2 3 3 4 3 3 4 4 5 5 5 5 5 5 6 6 6 6 6 6 6 6 7 7 7 7 7 8 9 10 11 12 13 14 14
2 2 2 2 2 2 2 2 2 3 3 3 4 3 3 3 4 4 5 5 5 5 5 5 6 6 5 5 6 6 6 7 7 7 7 8 9 10 12 13 14 14 14 14
2 2 2 1 1 2 3 3 3 3 3 3 3 3 3 3 4 4 5 5 5 5 5 5 5 5 5 5 6 6 6 7 7 7 8 9 11 12 13 14 14 14 14 14
2 2 2 1 2 2 4 4 4 3 3 3 3 3 4 4 4 4 5 5 5 5 5 5 5 6 6 6 6 6 7 7 7 8 9 11 12 13 14 14 14 14 14 14
2 2 2 1 1 3 4 5 5 4 3 3 4 3 3 3 3 4 5 5 5 5 5 5 5 6 6 6 6 7 7 7 8 9 11 13 13 14 13 13 14 14 13 13
2 2 2 1 1 3 4 5 4 3 3 3 3 3 3 3 3 4 4 5 5 5 5 5 5 6 6 6 7 7 7 8 10 12 13 13 13 13 13 13 13 13 13 13
2 2 2 2 2 3 4 4 3 3 3 3 3 3 3 3 4 4 5 5 5 5 5 5 5 5 6 6 7 7 8 10 12 13 13 12 12 13 13 12 12 12 13 14
2 2 2 2 3 3 4 3 3 3 3 3 3 3 4 4 4 5 5 6 6 6 6 6 6 6 6 7 7 8 9 11 12 13 12 12 12 12 12 12 13 13 14 15
2 2 2 2 3 3 4 3 3 3 3 4 4 4 4 4 5 5 6 6 7 7 7 7 6 6 6 7 8 10 11 12 12 12 11 12 12 12 12 14 14 15 15 15
3 3 2 2 3 3 3 3 3 4 4 4 5 5 5 5 6 6 6 7 7 7 7 7 7 6 7 8 9 11 12 12 12 11 11 11 12 13 14 15 15 15 15 15
3 3 3 2 2 3 3 3 4 4 4 5 5 5 6 6 7 7 7 7 7 7 7 7 7 7 7 8 10 12 12 12 11 11 10 11 13 14 15 15 15 15 15 15